Location: Narrabri
(30.3170°S, 149.7830°E)
Time: 23:15:59
(UTC+10:00)

Tiangong 2 - Visible Passes

Search period start: 24 April 2017 00:00
Search period end: 04 May 2017 00:00
Orbit: 380 x 389 km, 42.8° (Epoch: 22 April)

Date Brightness Start Highest point End Pass type
(mag) Time Alt. Az. Time Alt. Az. Time Alt. Az.
24 Apr 3.7 04:25:58 20° ENE 04:25:58 20° ENE 04:27:05 10° ENE visible
24 Apr 3.5 05:59:35 10° WNW 06:00:19 11° NW 06:01:03 10° NNW visible
25 Apr 3.0 05:02:06 19° N 05:02:06 19° N 05:03:36 10° NNE visible
27 Apr 4.3 19:30:04 10° NW 19:30:06 10° NNW 19:30:06 10° NNW visible
28 Apr 2.8 18:31:21 10° N 18:33:42 19° NE 18:33:52 19° NE visible
29 Apr 2.2 19:07:29 10° WNW 19:09:47 44° WNW 19:09:47 44° WNW visible
30 Apr 1.8 18:08:08 10° NW 18:11:10 40° NE 18:13:20 17° ESE visible
30 Apr 4.6 19:45:18 10° W 19:45:34 12° WSW 19:45:34 12° WSW visible
01 May 2.0 18:45:13 10° WNW 18:48:17 41° SSW 18:49:01 35° S visible
02 May 1.1 17:45:26 10° WNW 17:48:38 88° SW 17:51:52 10° ESE visible
02 May 4.0 19:23:35 10° WSW 19:24:35 14° SW 19:24:35 14° SW visible
03 May 3.0 18:23:11 10° W 18:25:53 24° SSW 18:27:50 15° SSE visible
